Time,TemperatureF,DewpointF,PressureIn,WindDirection,WindDirectionDegrees,WindSpeedMPH,WindSpeedGustMPH,Humidity,HourlyPrecipIn,Conditions,Clouds,dailyrainin,SoftwareType,DateUTC
2013-03-23 00:00:00,37.5,23.6,29.87,SSE,168,3.0,7.0,57,0.00,,,0.00,Wunderground v.1.15,2013-03-23 04:00:00,
2013-03-23 00:05:00,37.6,23.7,29.87,West,261,4.0,7.0,57,0.00,,,0.00,Wunderground v.1.15,2013-03-23 04:05:00,
2013-03-23 00:10:00,37.9,23.6,29.87,South,188,5.0,5.0,56,0.00,,,0.00,Wunderground v.1.15,2013-03-23 04:10:00,
2013-03-23 00:20:00,37.6,23.7,29.87,SSE,157,5.0,5.0,57,0.00,,,0.00,Wunderground v.1.15,2013-03-23 04:20:00,
2013-03-23 00:30:00,38.4,23.6,29.87,South,190,5.0,8.0,55,0.00,,,0.00,Wunderground v.1.15,2013-03-23 04:30:00,
2013-03-23 00:35:00,37.9,23.2,29.87,West,277,4.0,8.0,55,0.00,,,0.00,Wunderground v.1.15,2013-03-23 04:35:00,
2013-03-23 00:40:00,37.7,23.4,29.87,SW,236,4.0,4.0,56,0.00,,,0.00,Wunderground v.1.15,2013-03-23 04:40:00,
2013-03-23 00:50:00,37.2,22.5,29.87,SSE,156,3.0,3.0,55,0.00,,,0.00,Wunderground v.1.15,2013-03-23 04:50:00,
2013-03-23 01:00:00,37.4,22.7,29.87,WSW,243,4.0,8.0,55,0.00,,,0.00,Wunderground v.1.15,2013-03-23 05:00:00,
2013-03-23 01:10:00,37.3,21.7,29.86,WSW,238,4.0,4.0,53,0.00,,,0.00,Wunderground v.1.15,2013-03-23 05:10:00,
2013-03-23 01:20:00,37.0,21.4,29.87,SW,230,4.0,5.0,53,0.00,,,0.00,Wunderground v.1.15,2013-03-23 05:20:00,
2013-03-23 01:30:00,36.7,20.7,29.87,South,184,5.0,9.0,52,0.00,,,0.00,Wunderground v.1.15,2013-03-23 05:30:00,
2013-03-23 01:40:00,36.6,21.5,29.87,WSW,238,3.0,3.0,54,0.00,,,0.00,Wunderground v.1.15,2013-03-23 05:40:00,
2013-03-23 01:50:00,37.1,21.5,29.87,SW,230,4.0,7.0,53,0.00,,,0.00,Wunderground v.1.15,2013-03-23 05:50:00,
2013-03-23 02:00:00,37.0,21.4,29.86,South,180,3.0,7.0,53,0.00,,,0.00,Wunderground v.1.15,2013-03-23 06:00:00,
2013-03-23 02:10:00,36.9,21.8,29.86,SSE,158,4.0,4.0,54,0.00,,,0.00,Wunderground v.1.15,2013-03-23 06:10:00,
2013-03-23 02:20:00,36.7,22.0,29.86,SSW,196,3.0,7.0,55,0.00,,,0.00,Wunderground v.1.15,2013-03-23 06:20:00,
2013-03-23 02:30:00,36.9,21.8,29.86,SSW,193,4.0,4.0,54,0.00,,,0.00,Wunderground v.1.15,2013-03-23 06:30:00,
2013-03-23 02:40:00,36.5,21.8,29.86,SW,227,3.0,7.0,55,0.00,,,0.00,Wunderground v.1.15,2013-03-23 06:40:00,
2013-03-23 02:50:00,36.6,21.9,29.86,SW,219,4.0,4.0,55,0.00,,,0.00,Wunderground v.1.15,2013-03-23 06:50:00,
2013-03-23 03:00:00,37.4,22.3,29.86,SW,225,4.0,11.0,54,0.00,,,-99.99,WeatherLink 6.0.2,2013-03-23 07:00:00,
2013-03-23 03:10:00,36.5,21.8,29.85,WSW,242,3.0,3.0,55,0.00,,,0.00,Wunderground v.1.15,2013-03-23 07:10:00,
2013-03-23 03:20:00,36.1,21.9,29.85,South,180,2.0,3.0,56,0.00,,,0.00,Wunderground v.1.15,2013-03-23 07:20:00,
2013-03-23 03:30:00,36.2,21.6,29.85,SW,228,3.0,3.0,55,0.00,,,0.00,Wunderground v.1.15,2013-03-23 07:30:00,
2013-03-23 03:40:00,36.2,22.0,29.85,South,177,3.0,3.0,56,0.00,,,0.00,Wunderground v.1.15,2013-03-23 07:40:00,
2013-03-23 03:50:00,36.2,21.6,29.85,South,180,4.0,4.0,55,0.00,,,0.00,Wunderground v.1.15,2013-03-23 07:50:00,
2013-03-23 04:00:00,35.8,21.6,29.85,South,174,4.0,4.0,56,0.00,,,0.00,Wunderground v.1.15,2013-03-23 08:00:00,
2013-03-23 04:10:00,35.5,21.8,29.84,South,175,3.0,7.0,57,0.00,,,0.00,Wunderground v.1.15,2013-03-23 08:10:00,
2013-03-23 04:20:00,35.4,21.2,29.84,SSW,209,3.0,3.0,56,0.00,,,0.00,Wunderground v.1.15,2013-03-23 08:20:00,
2013-03-23 04:30:00,35.4,21.2,29.84,SSE,164,3.0,3.0,56,0.00,,,0.00,Wunderground v.1.15,2013-03-23 08:30:00,
2013-03-23 04:40:00,35.5,21.8,29.85,South,178,3.0,3.0,57,0.00,,,0.00,Wunderground v.1.15,2013-03-23 08:40:00,
2013-03-23 04:50:00,35.6,21.9,29.85,SSE,165,3.0,3.0,57,0.00,,,0.00,Wunderground v.1.15,2013-03-23 08:50:00,
2013-03-23 05:00:00,36.2,22.4,29.85,SSW,198,4.0,6.0,57,0.00,,,0.00,Wunderground v.1.15,2013-03-23 09:00:00,
2013-03-23 05:10:00,36.3,22.1,29.84,SW,227,5.0,5.0,56,0.00,,,0.00,Wunderground v.1.15,2013-03-23 09:10:00,
2013-03-23 05:20:00,36.4,22.2,29.84,SSW,194,5.0,5.0,56,0.00,,,0.00,Wunderground v.1.15,2013-03-23 09:20:00,
2013-03-23 05:30:00,36.4,22.6,29.84,South,187,3.0,4.0,57,0.00,,,0.00,Wunderground v.1.15,2013-03-23 09:30:00,
2013-03-23 05:40:00,36.4,22.6,29.85,South,176,5.0,5.0,57,0.00,,,0.00,Wunderground v.1.15,2013-03-23 09:40:00,
2013-03-23 05:50:00,36.1,22.3,29.85,South,186,4.0,4.0,57,0.00,,,0.00,Wunderground v.1.15,2013-03-23 09:50:00,
2013-03-23 06:00:00,36.0,22.6,29.85,South,171,5.0,5.0,58,0.00,,,0.00,Wunderground v.1.15,2013-03-23 10:00:00,
2013-03-23 06:10:00,36.1,22.7,29.85,South,184,5.0,5.0,58,0.00,,,0.00,Wunderground v.1.15,2013-03-23 10:10:00,
2013-03-23 06:20:00,36.3,22.1,29.86,SW,216,6.0,8.0,56,0.00,,,0.00,Wunderground v.1.15,2013-03-23 10:20:00,
2013-03-23 06:30:00,36.2,22.0,29.86,SW,224,5.0,5.0,56,0.00,,,0.00,Wunderground v.1.15,2013-03-23 10:30:00,
2013-03-23 06:40:00,36.1,22.7,29.86,SSW,209,4.0,4.0,58,0.00,,,0.00,Wunderground v.1.15,2013-03-23 10:40:00,
2013-03-23 06:50:00,36.0,22.6,29.86,SSW,196,4.0,4.0,58,0.00,,,0.00,Wunderground v.1.15,2013-03-23 10:50:00,
2013-03-23 07:00:00,36.2,22.8,29.86,SSW,207,4.0,8.0,58,0.00,,,0.00,Wunderground v.1.15,2013-03-23 11:00:00,
2013-03-23 07:10:00,36.2,22.4,29.86,South,182,5.0,5.0,57,0.00,,,0.00,Wunderground v.1.15,2013-03-23 11:10:00,
2013-03-23 07:20:00,36.1,21.9,29.86,South,174,4.0,4.0,56,0.00,,,0.00,Wunderground v.1.15,2013-03-23 11:20:00,
2013-03-23 07:30:00,36.0,22.2,29.86,SW,227,3.0,3.0,57,0.00,,,0.00,Wunderground v.1.15,2013-03-23 11:30:00,
2013-03-23 07:40:00,36.3,22.5,29.86,SW,230,4.0,6.0,57,0.00,,,0.00,Wunderground v.1.15,2013-03-23 11:40:00,
2013-03-23 07:50:00,37.7,23.0,29.87,SW,235,5.0,5.0,55,0.00,,,0.00,Wunderground v.1.15,2013-03-23 11:50:00,
2013-03-23 08:00:00,38.2,22.6,29.87,South,184,6.0,6.0,53,0.00,,,0.00,Wunderground v.1.15,2013-03-23 12:00:00,
2013-03-23 08:10:00,38.4,22.7,29.87,WSW,242,6.0,6.0,53,0.00,,,0.00,Wunderground v.1.15,2013-03-23 12:10:00,
2013-03-23 08:20:00,38.3,22.6,29.86,WSW,248,5.0,5.0,53,0.00,,,0.00,Wunderground v.1.15,2013-03-23 12:20:00,
2013-03-23 08:30:00,38.4,23.2,29.86,SSW,195,5.0,5.0,54,0.00,,,0.00,Wunderground v.1.15,2013-03-23 12:30:00,
2013-03-23 08:40:00,39.5,23.8,29.86,SW,215,6.0,6.0,53,0.00,,,0.00,Wunderground v.1.15,2013-03-23 12:40:00,
2013-03-23 08:50:00,39.8,23.6,29.86,West,260,6.0,7.0,52,0.00,,,0.00,Wunderground v.1.15,2013-03-23 12:50:00,
2013-03-23 09:00:00,39.1,22.9,29.85,SSE,166,6.0,6.0,52,0.00,,,0.00,Wunderground v.1.15,2013-03-23 13:00:00,
2013-03-23 09:10:00,38.6,22.5,29.85,SW,215,6.0,6.0,52,0.00,,,0.00,Wunderground v.1.15,2013-03-23 13:10:00,
2013-03-23 09:20:00,39.2,23.0,29.84,SSW,207,6.0,6.0,52,0.00,,,0.00,Wunderground v.1.15,2013-03-23 13:20:00,
2013-03-23 09:30:00,39.7,23.0,29.84,SW,221,7.0,9.0,51,0.00,,,0.00,Wunderground v.1.15,2013-03-23 13:30:00,
2013-03-23 09:40:00,39.7,23.0,29.84,SSE,165,7.0,9.0,51,0.00,,,0.00,Wunderground v.1.15,2013-03-23 13:40:00,
2013-03-23 09:50:00,40.1,22.9,29.83,SSW,197,8.0,8.0,50,0.00,,,0.00,Wunderground v.1.15,2013-03-23 13:50:00,
2013-03-23 10:00:00,40.7,23.5,29.84,SSW,201,8.0,8.0,50,0.00,,,0.00,Wunderground v.1.15,2013-03-23 14:00:00,
2013-03-23 10:10:00,41.5,23.7,29.84,WSW,241,6.0,7.0,49,0.00,,,0.00,Wunderground v.1.15,2013-03-23 14:10:00,
2013-03-23 10:20:00,41.9,23.1,29.84,SSW,192,7.0,11.0,47,0.00,,,0.00,Wunderground v.1.15,2013-03-23 14:20:00,
2013-03-23 10:30:00,41.9,23.6,29.84,SW,234,7.0,9.0,48,0.00,,,0.00,Wunderground v.1.15,2013-03-23 14:30:00,
2013-03-23 10:40:00,41.7,22.9,29.84,SSE,163,8.0,8.0,47,0.00,,,0.00,Wunderground v.1.15,2013-03-23 14:40:00,
2013-03-23 10:50:00,42.0,22.7,29.84,East,101,6.0,6.0,46,0.00,,,0.00,Wunderground v.1.15,2013-03-23 14:50:00,
2013-03-23 11:00:00,42.0,23.2,29.85,West,276,4.0,6.0,47,0.00,,,0.00,Wunderground v.1.15,2013-03-23 15:00:00,
2013-03-23 11:10:00,41.5,22.7,29.85,South,177,5.0,6.0,47,0.00,,,0.00,Wunderground v.1.15,2013-03-23 15:10:00,
2013-03-23 11:20:00,40.9,22.7,29.85,SSE,157,5.0,5.0,48,0.00,,,0.00,Wunderground v.1.15,2013-03-23 15:20:00,
2013-03-23 11:30:00,40.8,22.6,29.85,South,170,3.0,7.0,48,0.00,,,0.00,Wunderground v.1.15,2013-03-23 15:30:00,
2013-03-23 11:40:00,41.5,22.7,29.85,SSW,194,5.0,8.0,47,0.00,,,0.00,Wunderground v.1.15,2013-03-23 15:40:00,
2013-03-23 11:50:00,42.1,22.8,29.85,South,180,7.0,11.0,46,0.00,,,0.00,Wunderground v.1.15,2013-03-23 15:50:00,
2013-03-23 12:00:00,42.5,23.2,29.85,SW,229,4.0,4.0,46,0.00,,,0.00,Wunderground v.1.15,2013-03-23 16:00:00,
2013-03-23 12:10:00,42.2,22.9,29.85,ESE,119,4.0,4.0,46,0.00,,,0.00,Wunderground v.1.15,2013-03-23 16:10:00,
2013-03-23 12:20:00,43.0,23.1,29.84,SW,221,5.0,5.0,45,0.00,,,0.00,Wunderground v.1.15,2013-03-23 16:20:00,
2013-03-23 12:30:00,43.2,22.7,29.84,South,184,6.0,10.0,44,0.00,,,0.00,Wunderground v.1.15,2013-03-23 16:30:00,
2013-03-23 12:40:00,43.5,23.5,29.84,NNW,331,7.0,7.0,45,0.00,,,0.00,Wunderground v.1.15,2013-03-23 16:40:00,
2013-03-23 12:50:00,44.9,21.4,29.84,SW,229,6.0,14.0,39,0.00,,,0.00,Wunderground v.1.15,2013-03-23 16:50:00,
2013-03-23 13:00:00,44.9,22.6,29.84,SSW,202,7.0,24.0,41,0.00,,,-99.99,WeatherLink 6.0.2,2013-03-23 17:00:00,
2013-03-23 13:10:00,43.8,20.4,29.84,South,176,7.0,8.0,39,0.00,,,0.00,Wunderground v.1.15,2013-03-23 17:10:00,
2013-03-23 13:20:00,44.3,20.3,29.84,WNW,303,7.0,7.0,38,0.00,,,0.00,Wunderground v.1.15,2013-03-23 17:20:00,
2013-03-23 13:30:00,44.3,20.3,29.83,ESE,112,5.0,5.0,38,0.00,,,0.00,Wunderground v.1.15,2013-03-23 17:30:00,
2013-03-23 13:40:00,44.1,20.7,29.83,South,191,6.0,7.0,39,0.00,,,0.00,Wunderground v.1.15,2013-03-23 17:40:00,
2013-03-23 13:50:00,44.3,21.5,29.83,SW,220,7.0,8.0,40,0.00,,,0.00,Wunderground v.1.15,2013-03-23 17:50:00,
2013-03-23 14:00:00,44.6,22.3,29.82,SSE,167,6.0,6.0,41,0.00,,,0.00,Wunderground v.1.15,2013-03-23 18:00:00,
2013-03-23 14:10:00,44.8,22.5,29.82,SSE,168,8.0,15.0,41,0.00,,,0.00,Wunderground v.1.15,2013-03-23 18:10:00,
2013-03-23 14:20:00,44.4,21.0,29.82,South,190,8.0,8.0,39,0.00,,,0.00,Wunderground v.1.15,2013-03-23 18:20:00,
2013-03-23 14:30:00,43.8,19.8,29.82,NE,50,7.0,7.0,38,0.00,,,0.00,Wunderground v.1.15,2013-03-23 18:30:00,
2013-03-23 14:40:00,43.6,20.8,29.81,South,186,7.0,7.0,40,0.00,,,0.00,Wunderground v.1.15,2013-03-23 18:40:00,
2013-03-23 14:50:00,43.6,21.4,29.81,SW,220,9.0,9.0,41,0.00,,,0.00,Wunderground v.1.15,2013-03-23 18:50:00,
2013-03-23 15:00:00,44.2,21.4,29.81,South,180,7.0,22.0,40,0.00,,,-99.99,WeatherLink 6.0.2,2013-03-23 19:00:00,
2013-03-23 15:10:00,44.1,20.1,29.81,East,86,5.0,6.0,38,0.00,,,0.00,Wunderground v.1.15,2013-03-23 19:10:00,
2013-03-23 15:20:00,44.9,19.5,29.80,SSW,213,4.0,4.0,36,0.00,,,0.00,Wunderground v.1.15,2013-03-23 19:20:00,
2013-03-23 15:30:00,44.8,19.4,29.80,ESE,111,5.0,5.0,36,0.00,,,0.00,Wunderground v.1.15,2013-03-23 19:30:00,
2013-03-23 15:40:00,44.6,19.3,29.80,NE,46,5.0,6.0,36,0.00,,,0.00,Wunderground v.1.15,2013-03-23 19:40:00,
2013-03-23 15:50:00,44.7,19.3,29.80,NE,56,4.0,5.0,36,0.00,,,0.00,Wunderground v.1.15,2013-03-23 19:50:00,
2013-03-23 16:00:00,44.2,20.2,29.80,ESE,118,4.0,8.0,38,0.00,,,0.00,Wunderground v.1.15,2013-03-23 20:00:00,
2013-03-23 16:10:00,45.1,21.0,29.80,NNE,29,5.0,5.0,38,0.00,,,0.00,Wunderground v.1.15,2013-03-23 20:10:00,
2013-03-23 16:20:00,44.4,21.0,29.80,ESE,111,4.0,4.0,39,0.00,,,0.00,Wunderground v.1.15,2013-03-23 20:20:00,
2013-03-23 16:30:00,45.2,21.1,29.81,NNW,331,5.0,5.0,38,0.00,,,0.00,Wunderground v.1.15,2013-03-23 20:30:00,
2013-03-23 16:40:00,44.6,19.9,29.80,NE,34,4.0,4.0,37,0.00,,,0.00,Wunderground v.1.15,2013-03-23 20:40:00,
2013-03-23 16:50:00,45.6,20.1,29.80,NE,37,6.0,6.0,36,0.00,,,0.00,Wunderground v.1.15,2013-03-23 20:50:00,
2013-03-23 17:00:00,44.9,19.5,29.81,ENE,60,4.0,7.0,36,0.00,,,0.00,Wunderground v.1.15,2013-03-23 21:00:00,
2013-03-23 17:10:00,44.5,19.8,29.81,West,274,5.0,5.0,37,0.00,,,0.00,Wunderground v.1.15,2013-03-23 21:10:00,
2013-03-23 17:20:00,44.2,19.5,29.81,NE,35,4.0,4.0,37,0.00,,,0.00,Wunderground v.1.15,2013-03-23 21:20:00,
2013-03-23 17:30:00,44.0,20.0,29.82,SSE,150,5.0,5.0,38,0.00,,,0.00,Wunderground v.1.15,2013-03-23 21:30:00,
2013-03-23 17:40:00,44.2,18.9,29.82,ENE,61,6.0,6.0,36,0.00,,,0.00,Wunderground v.1.15,2013-03-23 21:40:00,
2013-03-23 17:50:00,44.3,20.3,29.82,SSW,194,7.0,7.0,38,0.00,,,0.00,Wunderground v.1.15,2013-03-23 21:50:00,
2013-03-23 18:00:00,43.8,19.8,29.82,SW,216,7.0,11.0,38,0.00,,,0.00,Wunderground v.1.15,2013-03-23 22:00:00,
2013-03-23 18:10:00,43.4,19.5,29.83,South,179,6.0,8.0,38,0.00,,,0.00,Wunderground v.1.15,2013-03-23 22:10:00,
2013-03-23 18:20:00,43.1,19.8,29.83,ENE,76,5.0,6.0,39,0.00,,,0.00,Wunderground v.1.15,2013-03-23 22:20:00,
2013-03-23 18:30:00,43.2,19.9,29.83,SSE,163,5.0,8.0,39,0.00,,,0.00,Wunderground v.1.15,2013-03-23 22:30:00,
2013-03-23 18:40:00,42.7,19.4,29.83,WSW,240,5.0,6.0,39,0.00,,,0.00,Wunderground v.1.15,2013-03-23 22:40:00,
2013-03-23 18:50:00,42.1,20.1,29.84,SW,215,5.0,7.0,41,0.00,,,0.00,Wunderground v.1.15,2013-03-23 22:50:00,
2013-03-23 19:00:00,42.2,19.6,29.84,SSW,197,7.0,7.0,40,0.00,,,0.00,Wunderground v.1.15,2013-03-23 23:00:00,
2013-03-23 19:10:00,42.0,19.4,29.84,South,190,7.0,7.0,40,0.00,,,0.00,Wunderground v.1.15,2013-03-23 23:10:00,
2013-03-23 19:20:00,41.5,19.5,29.85,SSE,151,5.0,6.0,41,0.00,,,0.00,Wunderground v.1.15,2013-03-23 23:20:00,
2013-03-23 19:30:00,41.5,18.9,29.85,SSW,192,8.0,8.0,40,0.00,,,0.00,Wunderground v.1.15,2013-03-23 23:30:00,
2013-03-23 19:40:00,41.2,18.7,29.85,SSE,151,5.0,9.0,40,0.00,,,0.00,Wunderground v.1.15,2013-03-23 23:40:00,
2013-03-23 19:50:00,40.8,19.5,29.86,SE,124,4.0,4.0,42,0.00,,,0.00,Wunderground v.1.15,2013-03-23 23:50:00,
2013-03-23 20:00:00,40.6,19.8,29.86,SSW,207,4.0,4.0,43,0.00,,,0.00,Wunderground v.1.15,2013-03-24 00:00:00,
2013-03-23 20:10:00,40.5,19.2,29.86,SE,138,4.0,4.0,42,0.00,,,0.00,Wunderground v.1.15,2013-03-24 00:10:00,
2013-03-23 20:20:00,40.9,20.1,29.88,SW,218,4.0,8.0,43,0.00,,,0.00,Wunderground v.1.15,2013-03-24 00:20:00,
2013-03-23 20:30:00,40.8,20.0,29.88,South,169,2.0,2.0,43,0.00,,,0.00,Wunderground v.1.15,2013-03-24 00:30:00,
2013-03-23 20:40:00,40.5,19.7,29.88,SSE,165,4.0,6.0,43,0.00,,,0.00,Wunderground v.1.15,2013-03-24 00:40:00,
2013-03-23 20:50:00,40.4,20.2,29.89,South,182,5.0,6.0,44,0.00,,,0.00,Wunderground v.1.15,2013-03-24 00:50:00,
2013-03-23 21:00:00,39.9,19.7,29.88,ENE,68,5.0,5.0,44,0.00,,,0.00,Wunderground v.1.15,2013-03-24 01:00:00,
2013-03-23 21:10:00,40.1,19.9,29.89,SSE,148,5.0,5.0,44,0.00,,,0.00,Wunderground v.1.15,2013-03-24 01:10:00,
2013-03-23 21:20:00,39.2,19.1,29.89,ESE,109,4.0,4.0,44,0.00,,,0.00,Wunderground v.1.15,2013-03-24 01:20:00,
2013-03-23 21:30:00,38.9,19.3,29.89,ESE,112,4.0,13.0,45,0.00,,,-99.99,WeatherLink 6.0.2,2013-03-24 01:30:00,
2013-03-23 21:40:00,39.4,19.8,29.89,SSE,147,5.0,6.0,45,0.00,,,0.00,Wunderground v.1.15,2013-03-24 01:40:00,
2013-03-23 21:50:00,39.1,20.0,29.89,ESE,118,4.0,4.0,46,0.00,,,0.00,Wunderground v.1.15,2013-03-24 01:50:00,
2013-03-23 22:00:00,38.4,19.9,29.90,ENE,67,3.0,3.0,47,0.00,,,0.00,Wunderground v.1.15,2013-03-24 02:00:00,
2013-03-23 22:10:00,38.2,19.7,29.90,SE,127,3.0,3.0,47,0.00,,,0.00,Wunderground v.1.15,2013-03-24 02:10:00,
2013-03-23 22:20:00,37.7,19.8,29.90,ENE,78,3.0,3.0,48,0.00,,,0.00,Wunderground v.1.15,2013-03-24 02:20:00,
2013-03-23 22:30:00,38.1,20.1,29.90,SSW,205,4.0,9.0,48,0.00,,,0.00,Wunderground v.1.15,2013-03-24 02:30:00,
2013-03-23 22:40:00,38.4,20.4,29.90,South,190,4.0,4.0,48,0.00,,,0.00,Wunderground v.1.15,2013-03-24 02:40:00,
2013-03-23 22:50:00,38.0,20.5,29.90,ESE,111,3.0,3.0,49,0.00,,,0.00,Wunderground v.1.15,2013-03-24 02:50:00,
2013-03-23 23:00:00,37.4,20.4,29.90,SSW,203,3.0,4.0,50,0.00,,,0.00,Wunderground v.1.15,2013-03-24 03:00:00,
2013-03-23 23:10:00,38.1,21.1,29.91,SW,218,4.0,4.0,50,0.00,,,0.00,Wunderground v.1.15,2013-03-24 03:10:00,
2013-03-23 23:20:00,37.7,20.7,29.91,ESE,105,2.0,4.0,50,0.00,,,0.00,Wunderground v.1.15,2013-03-24 03:20:00,
2013-03-23 23:30:00,36.9,20.9,29.91,ENE,70,2.0,3.0,52,0.00,,,0.00,Wunderground v.1.15,2013-03-24 03:30:00,
2013-03-23 23:40:00,36.6,21.1,29.92,NE,47,2.0,2.0,53,0.00,,,0.00,Wunderground v.1.15,2013-03-24 03:40:00,
2013-03-23 23:50:00,36.5,21.0,29.92,NE,37,2.0,4.0,53,0.00,,,0.00,Wunderground v.1.15,2013-03-24 03:50:00,